Satellite-Ground Cal/Val Region Overpasses Predictions

Prediction of Satellite NPP Overpassing Cal/Val Region: PacNW

Region Location: (Latitude: 10.00, Longitude: 139.50) to (Latitude: 22.70, Longitude: 165.60).

Table of predicted overpasses for the next 14.0 days since TLE Epoch: 6/15/2018
Interval Starting Time Starting Location Ending Time Ending Location
1 06/16/2018 03:04:34 ( 10.02, 153.59) 06/16/2018 03:08:09 ( 22.64, 150.58)
2 06/16/2018 15:36:26 ( 22.69, 150.83) 06/16/2018 15:40:02 ( 10.01, 147.81)
3 06/17/2018 02:45:32 ( 10.05, 158.34) 06/17/2018 02:49:07 ( 22.67, 155.34)
4 06/17/2018 15:17:25 ( 22.66, 155.58) 06/17/2018 15:21:00 ( 10.04, 152.58)
5 06/18/2018 02:26:30 ( 10.03, 163.11) 06/18/2018 02:30:05 ( 22.65, 160.10)
6 06/18/2018 14:58:22 ( 22.69, 160.35) 06/18/2018 15:01:58 ( 10.01, 157.33)
7 06/19/2018 02:10:12 ( 19.69, 165.59) 06/19/2018 02:11:03 ( 22.68, 164.85)
8 06/19/2018 03:48:57 ( 10.00, 142.50) 06/19/2018 03:52:31 ( 22.57, 139.51)
9 06/19/2018 14:39:21 ( 22.66, 165.10) 06/19/2018 14:42:56 ( 10.04, 162.10)
10 06/19/2018 16:20:51 ( 22.65, 139.72) 06/19/2018 16:21:06 ( 21.77, 139.51)
11 06/20/2018 03:29:56 ( 10.03, 147.25) 06/20/2018 03:33:31 ( 22.66, 144.24)
12 06/20/2018 16:01:48 ( 22.68, 144.49) 06/20/2018 16:05:23 ( 10.06, 141.49)
13 06/21/2018 03:10:53 ( 10.01, 152.01) 06/21/2018 03:14:29 ( 22.69, 148.99)
14 06/21/2018 15:42:47 ( 22.65, 149.24) 06/21/2018 15:46:22 ( 10.02, 146.24)
15 06/22/2018 02:51:52 ( 10.04, 156.76) 06/22/2018 02:55:27 ( 22.66, 153.76)
16 06/22/2018 15:23:45 ( 22.67, 154.01) 06/22/2018 15:27:20 ( 10.05, 151.00)
17 06/23/2018 02:32:49 ( 10.01, 161.53) 06/23/2018 02:36:25 ( 22.69, 158.51)
18 06/23/2018 15:04:42 ( 22.70, 158.77) 06/23/2018 15:08:18 ( 10.02, 155.75)
19 06/24/2018 02:14:39 ( 13.04, 165.59) 06/24/2018 02:17:23 ( 22.67, 163.28)
20 06/24/2018 03:55:18 ( 10.05, 140.91) 06/24/2018 03:57:01 ( 16.10, 139.50)
21 06/24/2018 14:45:41 ( 22.67, 163.52) 06/24/2018 14:49:16 ( 10.05, 160.52)
22 06/25/2018 03:36:15 ( 10.02, 145.67) 06/25/2018 03:39:50 ( 22.65, 142.67)
23 06/25/2018 14:29:50 ( 11.42, 165.60) 06/25/2018 14:30:14 ( 10.01, 165.27)
24 06/25/2018 16:08:08 ( 22.69, 142.91) 06/25/2018 16:11:44 ( 10.01, 139.90)
25 06/26/2018 03:17:14 ( 10.06, 150.42) 06/26/2018 03:20:49 ( 22.68, 147.42)
26 06/26/2018 15:49:07 ( 22.65, 147.67) 06/26/2018 15:52:42 ( 10.03, 144.66)
27 06/27/2018 02:58:11 ( 10.03, 155.19) 06/27/2018 03:01:46 ( 22.65, 152.18)
28 06/27/2018 15:30:04 ( 22.68, 152.43) 06/27/2018 15:33:39 ( 10.06, 149.43)
29 06/28/2018 02:39:09 ( 10.01, 159.95) 06/28/2018 02:42:45 ( 22.69, 156.93)
30 06/28/2018 15:11:03 ( 22.64, 157.18) 06/28/2018 15:14:38 ( 10.02, 154.18)
31 06/29/2018 02:20:08 ( 10.04, 164.70) 06/29/2018 02:23:43 ( 22.66, 161.70)


NCC Satellite Cal/Val Overpasses Prediction Service
